STARLINK-34978 (65435 NORAD) Tracking and Keplerian Element Data

This shows tracking and keplerian element data for the satellite.

Feedback or suggestion? Click here.




ElementValue
Catalog65435
NameSTARLINK-34978
Epoch Orbit1767
Epoch Day354.09075401
Epoch Year2025
RAAN205.983
Inclination97.6011
Eccentricity0.0001624
Argument of Perigee82.0975
Mean Anonmoly278.0436
Mean Motion15.05643174
Decay Rate1.3E-07
L11 65435U 25194B 25354.09075401 .00000013 00000+0 51178-5 0 9999
L22 65435 97.6011 205.9830 0001624 82.0975 278.0436 15.05643174 17677



Live tracking and technical data element details for STARLINK-34978 (NORAD 65435). STARLINK-34978 can be tracked NOW for your location showing map with azimuth and elevation plus other details from your city location.







IsCatalogInMostPopularTable: catalog: 65435, numindb: 9
Update: records affected: 1



GetName: 65435 STARLINK-34978

Hit Count: updated at: Mon, 20 Apr 2026 08:55:41 GMT